This is the latest recevied weather packets stored in our database for station/object K5OLV. If no packets are shown the sender has not sent any weather packets the latest 10 day(s).
| Time | Temp. | Humidity | Pressure | Rain* | Wind** | Luminosity | Snow |
|---|---|---|---|---|---|---|---|
| 1787778269 | 27.78° C | 79% | 1014.4 hPa | 0 mm | - | 122 W/m² | - |
| 1787777968 | 28.33° C | 75% | 1014.3 hPa | 0 mm | - | 134 W/m² | - |
| 1787777667 | 28.89° C | 73% | 1014.4 hPa | 0 mm | - | 149 W/m² | - |
| 1787777362 | 29.44° C | 69% | 1014.6 hPa | 0 mm | - | 167 W/m² | - |
| 1787777064 | 29.44° C | 65% | 1014.7 hPa | 0 mm | - | 184 W/m² | - |
| 1787776758 | 29.44° C | 66% | 1014.6 hPa | 0 mm | - | 201 W/m² | - |
| 1787776457 | 28.89° C | 64% | 1014.6 hPa | 0 mm | - | 225 W/m² | - |
| 1787776155 | 28.89° C | 65% | 1014.6 hPa | 0 mm | - | 277 W/m² | - |
| 1787775849 | 28.33° C | 66% | 1014.8 hPa | 0 mm | - | 262 W/m² | - |
| 1787775545 | 28.33° C | 65% | 1014.7 hPa | 0 mm | - | 243 W/m² | - |
| 1787775243 | 28.89° C | 66% | 1014.6 hPa | 0 mm | - | 232 W/m² | - |
| 1787774937 | 28.89° C | 66% | 1014.6 hPa | 0 mm | - | 232 W/m² | - |
| 1787774637 | 28.89° C | 67% | 1014.6 hPa | 0 mm | - | 255 W/m² | - |
| 1787774336 | 28.89° C | 64% | 1014.7 hPa | 0 mm | - | 265 W/m² | - |
| 1787774031 | 29.44° C | 62% | 1014.6 hPa | 0 mm | - | 303 W/m² | - |
| 1787773729 | 29.44° C | 61% | 1014.5 hPa | 0 mm | - | 427 W/m² | - |
| 1787773425 | 28.89° C | 60% | 1014.6 hPa | 0 mm | - | 317 W/m² | - |
| 1787773124 | 28.33° C | 62% | 1014.7 hPa | 0 mm | - | 338 W/m² | - |
| 1787772821 | 28.33° C | 61% | 1014.7 hPa | 0 mm | - | 526 W/m² | - |
| 1787772519 | 28.89° C | 63% | 1015 hPa | 0 mm | - | 482 W/m² | - |
| 1787772213 | 28.33° C | 65% | 1014.9 hPa | 0 mm | - | 478 W/m² | - |
| 1787771913 | 28.89° C | 65% | 1015 hPa | 0 mm | - | 588 W/m² | - |
| 1787771612 | 28.89° C | 66% | 1014.9 hPa | 0 mm | - | 696 W/m² | - |
| 1787771307 | 28.89° C | 63% | 1015.1 hPa | 0 mm | - | 538 W/m² | - |
| 1787771002 | 28.89° C | 64% | 1015.1 hPa | 0 mm | - | 569 W/m² | - |
* Rain latest hour (hover to see other rain measurements)
** Current wind speed in m/s (hover to see current wind gust speed)